This is the latest recevied weather packets stored in our database for station/object KQ4OSL. If no packets are shown the sender has not sent any weather packets the latest 10 day(s).
| Time | Temp. | Humidity | Pressure | Rain* | Wind** | Luminosity | Snow |
|---|---|---|---|---|---|---|---|
| 1787614442 | 27.78° C | 63% | 1017.3 hPa | 0 mm | - | 19 W/m² | - |
| 1787614139 | 28.33° C | 62% | 1017.1 hPa | 0 mm | - | 21 W/m² | - |
| 1787613834 | 28.33° C | 62% | 1017.2 hPa | 0 mm | - | 22 W/m² | - |
| 1787613530 | 28.33° C | 61% | 1017.3 hPa | 0 mm | - | 24 W/m² | - |
| 1787613225 | 28.89° C | 63% | 1017.3 hPa | 0 mm | - | 25 W/m² | - |
| 1787612921 | 28.89° C | 62% | 1017.1 hPa | 0 mm | - | 26 W/m² | - |
| 1787612617 | 28.89° C | 62% | 1017.2 hPa | 0 mm | - | 28 W/m² | - |
| 1787612313 | 29.44° C | 60% | 1017.4 hPa | 0 mm | - | 31 W/m² | - |
| 1787612009 | 29.44° C | 60% | 1017.4 hPa | 0 mm | - | 55 W/m² | - |
| 1787611706 | 30° C | 59% | 1017.5 hPa | 0 mm | - | 71 W/m² | - |
| 1787611402 | 30° C | 59% | 1017.4 hPa | 0 mm | - | 35 W/m² | - |
| 1787611096 | 30° C | 59% | 1017.4 hPa | 0 mm | - | 48 W/m² | - |
| 1787610792 | 30° C | 59% | 1017.3 hPa | 0 mm | - | 36 W/m² | - |
| 1787610488 | 30° C | 58% | 1017.5 hPa | 0 mm | - | 77 W/m² | - |
| 1787610187 | 30.56° C | 58% | 1017.5 hPa | 0 mm | - | 43 W/m² | - |
| 1787609887 | 30.56° C | 56% | 1017.4 hPa | 0 mm | - | 44 W/m² | - |
| 1787609586 | 30.56° C | 54% | 1017.4 hPa | 0 mm | - | 43 W/m² | - |
| 1787609281 | 30.56° C | 54% | 1017.5 hPa | 0 mm | - | 48 W/m² | - |
| 1787608981 | 31.11° C | 53% | 1017.4 hPa | 0 mm | - | 124 W/m² | - |
| 1787608676 | 30.56° C | 54% | 1017.5 hPa | 0 mm | - | 76 W/m² | - |
| 1787608375 | 30.56° C | 57% | 1017.3 hPa | 0 mm | - | 100 W/m² | - |
| 1787608073 | 31.67° C | 54% | 1017.5 hPa | 0 mm | - | 72 W/m² | - |
| 1787607768 | 31.11° C | 53% | 1017.6 hPa | 0 mm | - | 266 W/m² | - |
| 1787607465 | 31.11° C | 53% | 1017.4 hPa | 0 mm | - | 281 W/m² | - |
| 1787607162 | 31.11° C | 53% | 1017.7 hPa | 0 mm | - | 293 W/m² | - |
* Rain latest hour (hover to see other rain measurements)
** Current wind speed in m/s (hover to see current wind gust speed)